Torna al catalogo

ATLAS 5 CENTAUR DEB

LostHEO
NORAD 44669·DEBRIS·🇺🇸 United States

Lanciato Oct 17, 2018 da Cape Canaveral Space Force Station

Loading…

Prossimi Passaggi (prossime 24 ore)

TLE

ObsoletoSource: Space-Track

Epoca: Oct 29, 2019, 00:50 UTC

1 44669U 18079AF  19302.03510236 -.00000084  00000-0  00000+0 0  9991
2 44669  11.3180 258.4096 4693792 252.7389  52.1686  1.80844898  2544

Traccia ATLAS 5 CENTAUR DEB in tempo reale con AllMySat

Download on the App Store